Terminal Aerodrome Forecast
Issued by NWS Twin Cities, MN

Home | Current Version | Previous Version | Graphics & Text | Print | Product List | Glossary On
Versions: 1 2 3 4 5 6 7 8 9 10 11 12 13 14 15 16 17 18 19 20 21 22 23
000
FTUS43 KMPX 252337
TAFSTC
TAF
KSTC 252337Z 2600/2624 14007KT P6SM SCT050
     FM260600 16003KT P6SM BKN050
      TEMPO 2608/2612 4SM BR BKN012
     FM261200 23007KT P6SM SCT250=

USA.gov is the U.S. government's official web portal to all federal, state and local government web resources and services.